Location: Koussan�
(15.2012°N, 12.5548°W)
Time: 17:24:25
(UTC+00:00)

CSL-04 Debris - Pass Details

Date: 20 October 2020
Orbit: 827 x 848 km, 98.9° (Epoch: 29 November)

Event Time Altitude Azimuth Distance (km) Brightness Sun altitude
Rises 19:49:40 0° 157° (SSE) 3,356 7.2 -20.7°
Reaches altitude 10° 19:52:03 10° 152° (SSE) 2,425 6.4 -21.2°
Maximum altitude 19:57:17 55° 76° (ENE) 990 4.1 -22.5°
Drops below altitude 10° 20:02:32 10° 359° (N) 2,439 6.5 -23.7°
Sets 20:04:56 0° 355° (N) 3,376 7.3 -24.3°
